Nuiqsut, AK

2:32 PM AKST on February 24, 2017 (GMT -0900)
Nuiqsut

Weather History for PAQT - August, 2013

Change the Weather History Date:

Thursday, August 1, 2013

  Actual Average (PAKU) Record (PAKU)
Temperature  
Mean Temperature 58 °F -  
Max Temperature 70 °F 51 °F 69 °F (1992)
Min Temperature 48 °F 39 °F 14 °F (2005)
Degree Days  
Heating Degree Days 6    
Growing Degree Days 8 (Base 50)    
Moisture  
Dew Point 51 °F    
Average Humidity 80    
Maximum Humidity 100    
Minimum Humidity 51    
Precipitation  
Precipitation 0.07 in - - ()
Sea Level Pressure  
Sea Level Pressure 29.96 in    
Wind  
Wind Speed 8 mph (ESE)    
Max Wind Speed 16 mph    
Max Gust Speed -    
Visibility 10 miles    
Events Rain    
Averages and records for this station are not official NWS values.
T = Trace of Precipitation, MM = Missing Value Source: NWS Daily Summary

Daily Weather History Graph

Daily Weather History Graph

Search for Another Location

Airport or City:

Trip Planner

Search our weather history database for the weather conditions in past years. The results will help you decide how hot, cold, wet, or windy it might be!

Date:

Astronomy

Aug. 01, 2013 Rise Set
Actual Time 3:28 AM AKDT 12:44 AM AKDT
Civil Twilight Sun does not rise Sun does not rise
Nautical Twilight Sun does not rise Sun does not rise
Astronomical Twilight Sun does not rise Sun does not rise
Moon No Moon Rise No Moon Set
Length of Visible Light 24h 00m
Length of Day
21h 16m
Waning Crescent, 22% of the Moon is Illuminated
Aug 1
Waning Crescent
Aug 6
New
Aug 14
First Quarter
Aug 20
Full
Aug 28
Last Quarter

Hourly Weather History & Observations

Time (AKDT) Temp. Dew Point Humidity Pressure Visibility Wind Dir Wind Speed Gust Speed Precip Events Conditions
12:53 AM 48.0 °F 46.0 °F 93% 30.10 in 10.0 mi East 8.1 mph - N/A   Overcast
1:53 AM 48.0 °F 46.9 °F 96% 30.09 in 10.0 mi East 9.2 mph - N/A   Overcast
2:10 AM 48.2 °F 46.4 °F 93% 30.09 in 10.0 mi East 8.1 mph - N/A   Overcast
2:53 AM 48.0 °F 48.0 °F 100% 30.08 in 10.0 mi East 8.1 mph - N/A   Overcast
3:53 AM 48.0 °F 48.0 °F 100% 30.06 in 10.0 mi East 8.1 mph - N/A   Overcast
4:53 AM 48.0 °F 48.0 °F 100% 30.05 in 10.0 mi East 5.8 mph - N/A   Overcast
5:53 AM 48.9 °F 48.9 °F 100% 30.03 in 10.0 mi ESE 5.8 mph - N/A   Overcast
6:53 AM 50.0 °F 48.9 °F 96% 30.02 in 10.0 mi SE 4.6 mph - N/A   Overcast
7:53 AM 52.0 °F 51.1 °F 97% 30.01 in 10.0 mi ESE 3.5 mph - 0.00 in   Overcast
8:53 AM 55.0 °F 52.0 °F 89% 29.99 in 10.0 mi SE 8.1 mph - N/A   Scattered Clouds
9:53 AM 60.1 °F 53.1 °F 78% 29.97 in 10.0 mi SE 9.2 mph - N/A   Mostly Cloudy
10:53 AM 62.1 °F 54.0 °F 75% 29.95 in 10.0 mi SSE 9.2 mph - N/A   Partly Cloudy
11:53 AM 64.0 °F 52.0 °F 65% 29.94 in 10.0 mi South 15.0 mph - N/A   Clear
12:53 PM 66.9 °F 54.0 °F 63% 29.92 in 10.0 mi South 13.8 mph - N/A   Clear
1:53 PM 66.9 °F 50.0 °F 54% 29.91 in 10.0 mi WSW 16.1 mph - N/A   Clear
2:53 PM 69.1 °F 50.0 °F 51% 29.91 in 10.0 mi WSW 12.7 mph - N/A   Clear
3:53 PM 69.1 °F 50.0 °F 51% 29.90 in 10.0 mi WSW 10.4 mph - N/A   Clear
4:53 PM 68.0 °F 51.1 °F 55% 29.88 in 6.0 mi West 10.4 mph - N/A   Haze
5:53 PM 66.9 °F 52.0 °F 59% 29.87 in 10.0 mi NW 6.9 mph - N/A   Scattered Clouds
6:53 PM 66.0 °F 52.0 °F 60% 29.87 in 10.0 mi NW 6.9 mph - 0.00 in Rain Light Rain
7:53 PM 62.1 °F 54.0 °F 75% 29.87 in 10.0 mi North 5.8 mph - 0.00 in   Mostly Cloudy
8:53 PM 60.1 °F 54.0 °F 80% 29.88 in 10.0 mi North 3.5 mph - 0.00 in Rain Light Rain
9:53 PM 57.9 °F 55.9 °F 93% 29.88 in 8.0 mi Calm Calm - 0.03 in Rain Light Rain
10:53 PM 55.9 °F 54.0 °F 93% 29.87 in 8.0 mi ENE 4.6 mph - 0.03 in Rain Light Rain
11:53 PM 55.0 °F 54.0 °F 96% 29.87 in 10.0 mi East 3.5 mph - 0.01 in   Overcast